Location: *
(43.9900°N, 3.4811°E)
Time: 09:02:34
(UTC+00:00)

Cosmos 1898 Rocket - Pass Details

Date: 25 August 2019
Orbit: 754 x 784 km, 74.0° (Epoch: 21 October)

Event Time Altitude Azimuth Distance (km) Brightness Sun altitude
Rises 19:26:14 0° 182° (S) 3,235 6.5 -9.5°
Reaches altitude 10° 19:28:41 10° 177° (S) 2,308 5.7 -9.9°
Maximum altitude 19:33:41 47° 104° (ESE) 1,006 3.7 -10.7°
Drops below altitude 10° 19:38:41 10° 32° (NNE) 2,305 5.9 -11.5°
Sets 19:41:07 0° 27° (NNE) 3,231 6.8 -11.9°
